Tracking 18852 objects as of 23-Nov-2017
HD Live streaming from Space Station
objects crossing your sky now

OV1-14

Track OV1-14 now!
10-day predictions
OV1-14 is classified as:


NORAD ID: 3174
Int'l Code: 1968-026B
Perigee: 596.0 km
Apogee: 9,830.6 km
Inclination: 100.0 °
Period: 206.8 minutes
Semi major axis: 11584 km
RCS: 0.7366 m2 (medium)
Launch date: April 6, 1968
Source: United States (US)
Launch site: AIR FORCE WESTERN TEST RANGE (AFWTR)
aabbcc
Your satellite tracking list
Your tracking list is empty




NASA's NSSDC Master Catalog

Two Line Element Set (TLE):
1  3174U 68026B   17326.44928057 +.00000079 +00000-0 +15591-3 0  9995
2  3174 100.0000 128.3019 3985826 102.7644 340.2846 06.96299900258492
Source of the keplerian elements: AFSPC